This is the latest recevied weather packets stored in our database for station/object HI3LT-13. If no packets are shown the sender has not sent any weather packets the latest 10 day(s).
| Time | Temp. | Humidity | Pressure | Rain* | Wind** | Luminosity | Snow |
|---|---|---|---|---|---|---|---|
| 1787894455 | 25.56° C | 82% | 1016 hPa | 0 mm | - | - | - |
| 1787893855 | 25.56° C | 87% | 1016 hPa | 0 mm | - | - | - |
| 1787893254 | 26.11° C | 87% | 1016 hPa | 0 mm | - | - | - |
| 1787892653 | 27.22° C | 87% | 1016 hPa | 0 mm | - | - | - |
| 1787892053 | 27.22° C | 87% | 1016 hPa | 0 mm | - | - | - |
| 1787891453 | 26.67° C | 81% | 1016 hPa | 0 mm | - | - | - |
| 1787890852 | 26.67° C | 81% | 1016 hPa | 0 mm | - | - | - |
| 1787890251 | 26.67° C | 81% | 1016 hPa | 0 mm | - | - | - |
| 1787889651 | 26.67° C | 82% | 1016 hPa | 0 mm | - | - | - |
| 1787889050 | 26.67° C | 82% | 1016 hPa | 0 mm | - | - | - |
| 1787888450 | 26.67° C | 82% | 1016 hPa | 0 mm | - | - | - |
| 1787887849 | 26.67° C | 82% | 1016 hPa | 0 mm | - | - | - |
| 1787887249 | 26.67° C | 82% | 1016 hPa | 0 mm | - | - | - |
| 1787886648 | 26.67° C | 83% | 1016 hPa | 0 mm | - | - | - |
| 1787886048 | 26.67° C | 83% | 1016 hPa | 0 mm | - | - | - |
| 1787885447 | 26.67° C | 83% | 1016 hPa | 0 mm | - | - | - |
| 1787884846 | 26.67° C | 83% | 1016 hPa | 0 mm | - | - | - |
| 1787884246 | 26.67° C | 83% | 1016 hPa | 0 mm | - | - | - |
| 1787883645 | 26.67° C | 83% | 1016 hPa | 0 mm | - | - | - |
| 1787883044 | 27.22° C | 80% | 1016 hPa | 0 mm | - | - | - |
| 1787882444 | 27.22° C | 78% | 1016 hPa | 0 mm | - | - | - |
| 1787881844 | 27.22° C | 78% | 1016 hPa | 0 mm | - | - | - |
| 1787881243 | 26.11° C | 78% | 1016 hPa | 0 mm | - | - | - |
| 1787880642 | 26.11° C | 78% | 1016 hPa | 0 mm | - | - | - |
| 1787880042 | 26.11° C | 78% | 1015 hPa | 0 mm | - | - | - |
* Rain latest hour (hover to see other rain measurements)
** Current wind speed in m/s (hover to see current wind gust speed)